Stations météo

réclame
Mon MeteoGroup
Semmerzake, Belgique (6428): Température de l'air & dewpoint: 09.09.2019 12:00:00 - 15.09.2019 12:00:00 (CEST)Semmerzake, Belgique (6428): Vitesse du vent & gusts: 09.09.2019 12:00:00 - 15.09.2019 12:00:00 (CEST)Semmerzake, Belgique (6428): Direction du vent: 09.09.2019 12:00:00 - 15.09.2019 12:00:00 (CEST)Semmerzake, Belgique (6428): reduced air pressure: 09.09.2019 12:00:00 - 15.09.2019 12:00:00 (CEST)Semmerzake, Belgique (6428): visibility: 09.09.2019 12:00:00 - 15.09.2019 12:00:00 (CEST)
Date & Time tt [°C] td [°C] ff [km/h] ff [knt] fx [km/h] fx [knt] dd ppp [hPa] vv [km]
15.09.2019 12:00:00 19,5 11,5 11 6 18 10 W 1025,5 19
15.09.2019 11:00:00 18,7 11,2 7 4 - - WSW 1025,5 19
15.09.2019 10:00:00 14,9 10,9 7 4 11 6 SSW 1025,2 15
15.09.2019 09:00:00 12,9 9,6 7 4 11 6 SSW 1025,0 16
15.09.2019 08:00:00 9,8 8,3 7 4 - - SSW 1025,5 13
15.09.2019 07:00:00 9,6 8,4 4 2 7 4 N 1025,5 11
15.09.2019 06:00:00 9,8 8,7 4 2 7 4 N 1025,5 8
15.09.2019 05:00:00 10,3 9,1 7 4 - - S 1025,7 13
15.09.2019 04:00:00 9,5 8,9 4 2 4 2 N 1026,4 9
15.09.2019 03:00:00 10,3 9,6 4 2 4 2 N 1026,7 7
15.09.2019 02:00:00 11,5 9,6 4 2 - - N 1027,0 15
15.09.2019 01:00:00 11,3 9,2 4 2 4 2 N 1027,5 20
15.09.2019 00:00:00 12,6 9,8 4 2 4 2 N 1027,9 20
14.09.2019 23:00:00 14,9 9,9 4 2 - - N 1028,5 20
14.09.2019 22:00:00 - - - - - - - - -
14.09.2019 21:00:00 16,7 9,6 4 2 7 4 N 1029,2 20
14.09.2019 20:00:00 18,6 8,7 4 2 - - N 1029,0 20
14.09.2019 19:00:00 20,7 7,9 4 2 11 6 N 1029,2 20
14.09.2019 18:00:00 21,3 9,5 7 4 14 8 E 1029,5 20
14.09.2019 17:00:00 21,8 7,4 7 4 - - NE 1029,7 20
14.09.2019 16:00:00 21,6 7,7 7 4 14 8 N 1030,9 20
14.09.2019 15:00:00 21,3 9,6 7 4 18 10 N 1031,7 20
14.09.2019 14:00:00 20,4 9,6 7 4 - - ENE 1032,2 20
14.09.2019 13:00:00 19,7 9,9 7 4 14 8 E 1032,9 20
14.09.2019 12:00:00 18,6 11,4 11 6 14 8 ENE 1033,5 16
14.09.2019 11:00:00 16,4 11,2 7 4 - - E 1033,9 20
14.09.2019 10:00:00 13,9 11,0 7 4 14 8 NE 1034,2 20
14.09.2019 09:00:00 12,4 10,6 4 2 7 4 N 1033,9 15
14.09.2019 08:00:00 10,4 10,2 4 2 - - N 1033,7 8
14.09.2019 07:00:00 10,9 10,2 4 2 11 6 N 1033,9 10
14.09.2019 06:00:00 11,1 10,6 4 2 11 6 N 1034,0 7
14.09.2019 05:00:00 11,6 11,0 7 4 - - NNE 1034,5 11
14.09.2019 04:00:00 9,8 9,5 4 2 4 2 N 1034,4 1,5
14.09.2019 03:00:00 10,7 10,4 4 2 7 4 N 1034,5 7
14.09.2019 02:00:00 11,2 10,5 4 2 - - N 1035,0 12
14.09.2019 01:00:00 12,1 11,1 4 2 7 4 N 1035,4 18
14.09.2019 00:00:00 12,2 11,1 4 2 7 4 N 1035,2 15
13.09.2019 23:00:00 13,3 11,6 7 4 - - N 1035,4 19
13.09.2019 22:00:00 14,1 11,9 7 4 14 8 N 1035,0 20
13.09.2019 21:00:00 15,4 12,3 7 4 18 10 N 1035,0 20
13.09.2019 20:00:00 16,9 11,9 11 6 - - N 1034,5 20
13.09.2019 19:00:00 18,2 12,2 14 8 25 14 N 1034,0 20
13.09.2019 18:00:00 19,4 11,9 11 6 25 14 N 1033,7 20
13.09.2019 17:00:00 20,1 12,6 14 8 - - N 1033,7 20
13.09.2019 16:00:00 21,1 12,9 11 6 22 12 N 1033,7 19
13.09.2019 15:00:00 21,2 13,0 14 8 25 14 N 1033,5 20
13.09.2019 14:00:00 21,0 14,3 14 8 - - N 1033,7 19
13.09.2019 13:00:00 19,8 15,5 14 8 25 14 N 1033,2 20
13.09.2019 12:00:00 19,3 16,3 4 2 11 6 N 1033,4 17
13.09.2019 11:00:00 18,9 16,6 4 2 - - N 1033,0 17
13.09.2019 10:00:00 17,5 16,4 4 2 11 6 - 1032,5 12
13.09.2019 09:00:00 17,5 15,4 4 2 11 6 N 1032,0 17
13.09.2019 08:00:00 17,1 14,9 4 2 - - N 1031,5 17
13.09.2019 07:00:00 17,2 14,6 7 4 14 8 WSW 1031,0 20
13.09.2019 06:00:00 17,2 14,4 7 4 14 8 W 1030,5 20
13.09.2019 05:00:00 17,3 14,3 11 6 - - WSW 1030,4 20
13.09.2019 04:00:00 17,4 14,1 7 4 25 14 WSW 1030,4 20
13.09.2019 03:00:00 17,8 14,4 14 8 25 14 WSW 1030,2 20
13.09.2019 02:00:00 17,7 15,1 7 4 - - W 1030,2 20
13.09.2019 01:00:00 17,8 14,9 18 10 32 18 WSW 1030,0 20
13.09.2019 00:00:00 18,1 14,7 18 10 32 18 WSW 1030,2 20
12.09.2019 23:00:00 18,3 14,5 14 8 - - SW 1030,0 20
12.09.2019 22:00:00 18,8 14,3 18 10 40 21 WSW 1030,0 20
12.09.2019 21:00:00 19,3 15,5 18 10 32 18 SW 1029,7 20
12.09.2019 20:00:00 20,1 16,1 14 8 - - WSW 1029,7 20
12.09.2019 19:00:00 20,7 15,9 14 8 29 16 WSW 1029,7 20
12.09.2019 18:00:00 21,3 15,8 18 10 32 18 SW 1029,4 20
12.09.2019 17:00:00 21,8 15,0 18 10 - - WSW 1029,2 20
12.09.2019 16:00:00 22,2 13,8 14 8 25 14 W 1029,2 20
12.09.2019 15:00:00 22,9 12,9 11 6 25 14 WSW 1029,2 20
12.09.2019 14:00:00 21,8 12,8 14 8 - - WSW 1029,4 20
12.09.2019 13:00:00 20,8 13,4 14 8 25 14 WSW 1029,2 20
12.09.2019 12:00:00 19,8 12,9 18 10 32 18 WSW 1029,0 20
12.09.2019 11:00:00 19,1 13,9 18 10 - - WSW 1028,5 20
12.09.2019 10:00:00 18,4 14,9 18 10 29 16 WSW 1028,2 20
12.09.2019 09:00:00 17,7 16,4 11 6 18 10 SW 1027,0 17
12.09.2019 08:00:00 16,6 16,0 4 2 - - N 1026,7 10
12.09.2019 07:00:00 16,6 15,8 7 4 14 8 SW 1026,2 15
12.09.2019 06:00:00 16,7 15,7 7 4 18 10 SW 1026,0 20
12.09.2019 05:00:00 17,5 16,3 11 6 - - SW 1025,5 9
12.09.2019 04:00:00 17,3 16,3 7 4 18 10 SW 1025,2 12
12.09.2019 03:00:00 17,2 16,2 11 6 22 12 SW 1025,0 11
12.09.2019 02:00:00 17,5 16,3 14 8 - - SW 1024,7 15
12.09.2019 01:00:00 17,2 16,5 11 6 22 12 WSW 1024,4 11
12.09.2019 00:00:00 17,2 16,5 11 6 18 10 WSW 1024,2 9
11.09.2019 23:00:00 17,0 16,4 11 6 - - SW 1024,0 19
11.09.2019 22:00:00 16,7 16,3 11 6 25 14 SW 1023,8 12
11.09.2019 21:00:00 16,6 16,3 11 6 25 14 SW 1023,3 3,1
11.09.2019 20:00:00 16,7 16,1 14 8 - - SW 1022,7 3,7
11.09.2019 19:00:00 18,2 15,0 22 12 36 19 SW 1022,5 20
11.09.2019 18:00:00 18,3 14,5 18 10 32 18 SW 1022,5 20
11.09.2019 17:00:00 18,3 13,9 18 10 - - SW 1022,2 20
11.09.2019 16:00:00 18,0 14,1 14 8 32 18 SW 1021,8 20
11.09.2019 15:00:00 15,0 14,1 14 8 32 18 SW 1022,6 8
11.09.2019 14:00:00 16,7 12,2 18 10 - - WSW 1022,5 12
11.09.2019 13:00:00 16,5 14,1 18 10 32 18 SSW 1022,1 14
11.09.2019 12:00:00 15,5 13,9 18 10 32 18 SSW 1022,1 11
11.09.2019 11:00:00 14,6 13,6 14 8 - - S 1022,2 7
11.09.2019 10:00:00 13,8 13,0 14 8 22 12 S 1022,1 5
11.09.2019 09:00:00 13,8 12,8 11 6 18 10 SSW 1021,8 5
11.09.2019 08:00:00 13,8 12,2 11 6 - - SW 1021,7 6
11.09.2019 07:00:00 13,8 11,6 11 6 18 10 SSW 1021,1 9
11.09.2019 06:00:00 13,3 10,8 7 4 18 10 SSW 1021,2 9
11.09.2019 05:00:00 12,9 10,2 11 6 - - SSW 1021,3 14
11.09.2019 04:00:00 12,8 9,9 7 4 14 8 SSW 1021,7 14
11.09.2019 03:00:00 12,5 10,1 7 4 11 6 SSW 1021,6 13
11.09.2019 02:00:00 14,0 10,7 7 4 - - SSW 1021,7 17
11.09.2019 01:00:00 14,5 10,9 7 4 7 4 SSW 1021,6 19
11.09.2019 00:00:00 14,0 11,1 4 2 4 2 N 1021,5 17
10.09.2019 23:00:00 14,3 10,9 4 2 - - N 1021,6 19
10.09.2019 22:00:00 15,0 10,4 4 2 7 4 N 1021,5 20
10.09.2019 21:00:00 14,8 9,9 4 2 11 6 N 1020,8 20
10.09.2019 20:00:00 16,3 9,8 7 4 - - NNW 1020,2 20
10.09.2019 19:00:00 18,1 9,6 11 6 18 10 NNW 1020,1 20
10.09.2019 18:00:00 19,6 8,6 7 4 18 10 WNW 1019,6 20
10.09.2019 17:00:00 18,8 8,6 11 6 - - NNW 1019,2 20
10.09.2019 16:00:00 19,5 8,5 7 4 22 12 NW 1019,2 20
10.09.2019 15:00:00 19,8 8,2 4 2 18 10 N 1019,2 20
10.09.2019 14:00:00 19,4 8,0 4 2 - - N 1019,2 20
10.09.2019 13:00:00 18,6 6,6 4 2 11 6 N 1019,0 20
10.09.2019 12:00:00 17,8 7,0 4 2 7 4 N 1018,8 20
10.09.2019 11:00:00 16,3 7,6 4 2 - - N 1018,7 20
10.09.2019 10:00:00 13,7 8,1 4 2 7 4 N 1018,1 20
10.09.2019 09:00:00 11,1 7,8 4 2 7 4 N 1017,5 20
10.09.2019 08:00:00 8,5 6,2 4 2 - - N 1016,8 20
10.09.2019 07:00:00 7,2 6,0 4 2 4 2 N 1016,3 18
10.09.2019 06:00:00 7,0 6,1 4 2 4 2 N 1016,0 14
10.09.2019 05:00:00 7,8 6,6 4 2 - - N 1016,0 18
10.09.2019 04:00:00 8,6 6,9 4 2 4 2 N 1015,8 20
10.09.2019 03:00:00 9,0 7,1 4 2 11 6 N 1015,5 20
10.09.2019 02:00:00 10,8 6,9 7 4 - - SE 1015,2 20
10.09.2019 01:00:00 11,5 7,2 4 2 7 4 N 1015,1 20
10.09.2019 00:00:00 12,1 7,1 4 2 7 4 N 1014,8 20
09.09.2019 23:00:00 - - - - - - - - -
09.09.2019 22:00:00 13,5 6,9 4 2 11 6 N 1014,7 20
09.09.2019 21:00:00 14,2 6,9 7 4 11 6 E 1014,5 20
09.09.2019 20:00:00 14,6 6,9 4 2 - - N 1014,2 20
09.09.2019 19:00:00 15,1 6,8 4 2 18 10 N 1014,1 20
09.09.2019 18:00:00 15,6 5,6 11 6 18 10 S 1014,2 20
09.09.2019 17:00:00 16,0 4,6 11 6 - - S 1014,2 20
09.09.2019 16:00:00 16,4 6,0 11 6 22 12 SSW 1014,6 20
09.09.2019 15:00:00 16,6 5,0 14 8 25 14 SW 1014,8 20
09.09.2019 14:00:00 15,9 7,2 11 6 - - SSW 1015,2 20
09.09.2019 13:00:00 15,9 6,5 11 6 22 12 SSW 1015,5 20
09.09.2019 12:00:00 14,4 8,6 11 6 18 10 SW 1016,1 19

tt = Température de l'air
td = dewpoint
ff = Vitesse du vent
fx = gusts
dd = Direction du vent
ppp = reduced air pressure
vv = visibility

stations d'obs. à proximité